星链-32148 (STARLINK-32148)

导读

STARLINK-32148是美国SpaceX星链计划中的一颗卫星,于2024年7月27日发射升空。作为星链星座部署的组成部分,它主要服务于全球卫星互联网项目,为地面提供宽带互联网接入服务,尤其覆盖偏远与缺乏基础设施的地区,进一步推进了星链星座的组网进程,强化了星链系统的全球覆盖能力与服务稳定性。

Basic Information
目录编号:
60263
目录名称:
STARLINK-32148
国际标识:
2024-131J
轨道中心:
EARTH
卫星名称:
星链-32148 (STARLINK-32148)
卫星全名:
星链-32148 (STARLINK-32148)
卫星状态:
在轨 (已飞行691 天)
发射日期:
2024-07-27 UTC
国别 :
美国 (US)
星等 :
--
Orbit Information
数据来源 国际轨道数据 AOE轨道数据
星历时间 2026-06-17T23:05:01+0800
10小时前
查看轨道信息
2026-06-11T17:00:00+0800
6天前
查看轨道信息
半长轴 6848.737km 6848.861km
偏心率 0.0002247 0.0001172
轨道倾角 53.161° 53.161°
近地点辐角 154.802° 71.331°
升交点赤经 307.945° 337.058°
平近点角 205.310° 347.069°
近地点 469.061km 469.921km
远地点 472.139km 471.527km
周期 94.010分钟 94.013分钟
每日圈数 15.317471 15.317055
Detailed Information
卫星平台:
Starlink v2.0 mini
运营商:
太空探索技术公司
运营商所在国:
美国
制造商(研发单位):
太空探索技术公司
制造商所在国:
美国
使用方式:
暂无
Satellite Introduction
星链(Starlink)计划是由太空探索技术公司(SpaceX)提出的一个巨型低轨卫星互联网星座项目,计划在2019年至2024年间在太空搭建由约1.2万颗卫星组成的“星链”网络,其中1584颗将部署在地球上空550千米处的近地轨道,并从2020年开始工作。该卫星仍在工作。
2D Orbit Map
3D Orbit Map
Orbit Altitude Analysis Chart
Orbit Inclination Analysis Chart
Orbit Comprehensive Analysis Chart
View Comprehensive Chart